Weather in Fresno

United States     36°44′36″N   119°47′17″W
temp.,
°C
wind,
m/s
gust,
m/s
humid.,
%
clouds,
%
prec.,
mm/h
press.,
hPa
HPBL,
m
18 september, sat
sat1823:00+26nw46300 0.0 1013292
02:00+22nw23440 0.0 1014239
05:00+19nw34560 0.0 1015249
08:00+19nw34560 0.0 1016292
11:00+25wnw22380 0.0 1016654
14:00+30nw33240 0.0 10141236
17:00+32nw54164 0.0 10131964
20:00+28nw59215 0.0 1013615
19 september, sun
sun1923:00+22nw610500 0.0 1015381
02:00+20nw610650 0.0 1015358
05:00+18nw48700 0.0 1015338
08:00+19nw24650 0.0 1017360
11:00+25nnw464810 0.0 10161110
14:00+29nw66370 0.0 10131724
17:00+30nw66260 0.0 10111806
20:00+27nw69210 0.0 1012801
20 september, mon
mon2023:00+23nw512330 0.0 1012523
02:00+20nw58420 0.0 1012354
05:00+18nw34470 0.0 1013229
08:00+19wnw11440 0.0 1014245
11:00+25s11300 0.0 1014625
14:00+30nw11220 0.0 1012801
17:00+32nnw11200 0.0 1010723
20:00+30n11230 0.0 101112
21 september, tue
tue2123:00+27nnw12260 0.0 101335
02:00+25n11290 0.0 101312
05:00+24ssw01310 0.0 101411
08:00+24s00290 0.0 101666
11:00+31wsw11200 0.0 1017420
14:00+36nnw12140 0.0 1015764
17:00+38nne22110 0.0 1013946
20:00+34n11130 0.0 101314
22 september, wed
wed2223:00+29wnw36200 0.0 1015153
02:00+26wnw12220 0.0 101676
05:00+24wnw01240 0.0 101755
08:00+25s12230 0.0 1018143
11:00+31se12170 0.0 1017531
14:00+36wnw11120 0.0 1014751
17:00+38nnw23110 0.0 1011946
20:00+34nw35140 0.0 1011131